DL8NDG-13 Weather Reports


time (UTC)temp
F
wind
direction
speed
knots
gust
knots
rain 1hr
in
rain 24hr
in
rain mn
in
humidity
%
barometer
mb
20260508191545 54 23 0.0 0.0 0.00 0.00 0.00 75 1016.9
20260508190043 55 22 0.0 0.0 0.00 0.00 0.00 74 1016.6
20260508184544 56 24 0.0 0.0 0.00 0.00 0.00 71 1016.4
20260508183059 57 22 0.0 0.0 0.00 0.00 0.00 69 1016.3
20260508181551 58 24 0.0 0.0 0.00 0.00 0.00 66 1016.2
20260508180042 59 24 0.0 0.0 0.00 0.00 0.00 64 1015.9
20260508174541 60 23 0.0 0.0 0.00 0.00 0.00 62 1015.9
20260508173041 61 26 0.0 0.0 0.00 0.00 0.00 61 1015.8
20260508171547 62 23 0.0 0.0 0.00 0.00 0.00 58 1015.8
20260508170039 62 23 0.0 0.0 0.00 0.00 0.00 59 1015.8
20260508164539 63 29 0.0 0.0 0.00 0.00 0.00 57 1015.8
20260508163045 64 29 0.0 0.0 0.00 0.00 0.00 57 1015.9
20260508161540 62 5 0.0 0.0 0.00 0.00 0.00 57 1015.8
20260508160039 62 5 0.0 0.0 0.00 0.00 0.00 59 1015.7
20260508154536 62 360 0.0 0.0 0.00 0.00 0.00 55 1015.8
20260508153035 63 11 0.0 0.0 0.00 0.00 0.00 54 1015.8
20260508151634 63 13 0.0 0.0 0.00 0.00 0.00 53 1015.8
20260508150039 62 15 0.0 0.0 0.00 0.00 0.00 55 1015.9
20260508144541 62 15 0.0 0.0 0.00 0.00 0.00 56 1016.0
20260508143037 64 15 0.0 0.0 0.00 0.00 0.00 57 1016.1
20260508141531 64 5 0.0 0.0 0.00 0.00 0.00 52 1016.2
20260508140037 62 294 0.0 0.0 0.00 0.00 0.00 56 1016.4
20260508134530 63 5 0.0 0.0 0.00 0.00 0.00 56 1016.5
20260508133026 61 11 0.0 0.0 0.00 0.00 0.00 58 1016.7
20260508131525 62 360 0.0 0.0 0.00 0.00 0.00 56 1016.6
20260508130027 61 11 0.0 0.0 0.00 0.00 0.00 59 1016.6
20260508124525 62 13 0.0 0.0 0.00 0.00 0.00 58 1016.9
20260508123025 63 360 0.0 0.0 0.00 0.00 0.00 59 1016.9
20260508121524 59 276 0.0 0.0 0.00 0.00 0.00 60 1017.0
20260508120023 60 262 0.0 0.0 0.00 0.00 0.00 63 1016.9
20260508114530 60 360 0.0 0.0 0.00 0.00 0.00 60 1017.0
20260508113027 62 27 0.0 0.0 0.00 0.00 0.00 59 1016.8
20260508111515 62 34 0.0 0.0 0.00 0.00 0.00 63 1017.1
20260508110013 59 32 0.0 0.0 0.00 0.00 0.00 66 1017.0
20260508104512 59 30 0.0 0.0 0.00 0.00 0.00 64 1017.2
20260508103009 60 43 0.9 7.8 0.00 0.00 0.00 63 1017.2
20260508101507 60 38 0.0 3.5 0.00 0.00 0.00 63 1017.3
20260508100002 59 28 1.7 4.3 0.00 0.00 0.00 69 1017.4
20260508094558 56 24 0.9 5.2 0.00 0.04 0.00 74 1017.5
20260508093056 54 360 0.0 0.0 0.00 0.04 0.00 79 1017.6
20260508091552 54 360 0.0 0.0 0.00 0.04 0.00 77 1017.7
20260508090053 53 360 0.0 0.0 0.00 0.04 0.00 78 1017.7
20260508084550 53 360 0.0 0.0 0.00 0.06 0.00 79 1017.6
20260508083047 53 360 0.0 0.0 0.00 0.06 0.00 81 1017.7
20260508081544 52 273 0.0 0.0 0.00 0.06 0.00 82 1017.9
20260508080039 51 273 0.0 0.0 0.00 0.06 0.00 84 1017.9
20260508074537 50 273 0.0 0.0 0.00 0.08 0.00 84 1017.9
20260508073036 50 196 0.0 0.0 0.00 0.08 0.00 86 1017.9
20260508071533 50 273 0.0 0.0 0.00 0.08 0.00 87 1017.7
20260508070028 49 267 0.0 0.0 0.00 0.08 0.00 87 1017.6
20260508064547 49 267 0.0 0.0 0.00 0.14 0.00 86 1017.5
20260508063027 49 267 0.0 0.0 0.00 0.14 0.00 85 1017.4
20260508061520 48 269 0.0 0.0 0.00 0.14 0.00 85 1017.1
20260508060018 48 262 0.0 0.0 0.00 0.14 0.00 84 1017.0
20260508054526 48 173 0.0 0.0 0.00 0.14 0.00 83 1017.0
20260508053014 48 155 0.0 0.0 0.00 0.14 0.00 83 1016.8
20260508051522 48 155 0.0 0.0 0.00 0.14 0.00 82 1016.8
20260508050017 47 156 0.0 0.0 0.00 0.14 0.00 82 1016.5
20260508044507 47 155 0.0 0.0 0.00 0.14 0.00 83 1016.6
20260508043005 47 155 0.0 0.0 0.00 0.14 0.00 83 1016.5
20260508041502 47 128 0.0 0.0 0.00 0.14 0.00 83 1016.4
20260508040107 47 148 0.0 0.0 0.00 0.14 0.00 83 1016.4
20260508034600 47 141 0.0 0.0 0.00 0.14 0.00 83 1016.1
20260508033059 47 142 0.0 0.0 0.00 0.14 0.00 83 1016.0
20260508031606 47 229 0.0 0.0 0.00 0.14 0.00 83 1016.0
20260508030105 47 165 0.0 0.0 0.00 0.14 0.00 83 1015.9
20260508024557 46 148 0.0 0.0 0.00 0.14 0.00 84 1016.0
20260508023056 46 128 0.0 0.0 0.00 0.14 0.00 85 1015.9
20260508021603 45 228 0.0 0.0 0.00 0.14 0.00 85 1016.0
20260508020154 45 228 0.0 0.0 0.00 0.14 0.00 86 1016.0
20260508014552 45 167 0.0 0.0 0.00 0.14 0.00 86 1015.9
20260508013050 46 165 0.0 0.0 0.00 0.14 0.00 86 1015.9
20260508011551 46 165 0.0 0.0 0.00 0.14 0.00 86 1016.0
20260508010146 47 165 0.0 0.0 0.00 0.14 0.00 86 1016.0
20260508004542 47 148 0.0 0.0 0.00 0.16 0.00 86 1016.2
20260508003041 48 142 0.0 0.0 0.00 0.16 0.00 86 1016.3
20260508001540 48 252 0.0 0.0 0.00 0.16 0.00 86 1016.3
20260508000052 48 229 0.0 0.0 0.00 0.16 0.00 86 1016.3
20260507234544 48 165 0.0 0.0 0.00 0.17 0.00 86 1016.3
20260507233037 48 165 0.0 0.0 0.00 0.17 0.00 86 1016.3
20260507231542 48 148 0.0 0.0 0.00 0.17 0.00 86 1016.4
20260507230034 48 142 0.0 0.0 0.00 0.17 0.00 87 1016.4
20260507224533 48 230 0.0 0.0 0.00 0.18 0.00 87 1016.4
20260507223032 48 229 0.0 0.0 0.00 0.18 0.00 87 1016.3
20260507221531 48 165 0.0 0.0 0.00 0.18 0.00 87 1016.3
20260507220029 48 148 0.0 0.0 0.00 0.18 0.00 87 1016.3
20260507214530 49 148 0.0 0.0 0.00 0.18 0.18 87 1016.1
20260507213026 49 149 0.0 0.0 0.00 0.18 0.18 87 1016.0
20260507211533 49 252 0.0 0.0 0.00 0.18 0.18 87 1016.0
20260507210024 50 229 0.0 0.0 0.00 0.18 0.18 87 1016.0
20260507204524 50 165 0.0 0.0 0.00 0.20 0.18 87 1016.0
20260507203021 50 165 0.0 0.0 0.00 0.20 0.18 87 1015.9
20260507201519 50 166 0.0 0.0 0.00 0.20 0.18 87 1015.7
20260507200017 50 149 0.0 0.0 0.00 0.20 0.18 87 1015.6
20260507194516 50 252 0.0 0.0 0.00 0.20 0.18 87 1015.5
20260507193020 50 142 0.0 0.0 0.00 0.20 0.18 86 1015.5